Location: Walsall
(52.5862°N, 1.9829°W)
Time: 01:52:34
(UTC+01:00)

Envisat - Visible Passes

Search period start: 03 October 2022 00:00
Search period end: 13 October 2022 00:00
Orbit: 764 x 765 km, 98.2° (Epoch: 02 October)

Date Brightness Start Highest point End Pass type
(mag) Time Alt. Az. Time Alt. Az. Time Alt. Az.
03 Oct 4.4 04:58:32 10° NNE 05:03:17 37° E 05:07:59 10° SSE visible
04 Oct 5.5 04:22:15 10° NE 04:25:57 20° E 04:29:38 10° SE visible
04 Oct 2.9 06:00:25 10° NNE 06:05:31 73° WNW 06:10:34 10° SSW visible
05 Oct 3.6 05:23:28 10° NNE 05:28:31 59° ESE 05:33:31 10° S visible
06 Oct 4.8 04:46:49 10° NNE 04:51:20 31° E 04:55:47 10° SSE visible
06 Oct 3.3 06:25:39 10° N 06:30:32 47° WNW 06:35:22 10° SW visible
07 Oct 5.7 04:10:48 10° NE 04:13:55 16° E 04:17:03 10° SE visible
07 Oct 3.0 05:48:32 10° NNE 05:53:40 88° WNW 05:58:45 10° SSW visible
08 Oct 3.9 05:11:40 10° NNE 05:16:36 48° E 05:21:30 10° S visible
09 Oct 5.1 04:35:09 10° NE 04:39:21 25° E 04:43:31 10° SSE visible
09 Oct 3.1 06:13:43 10° N 06:18:43 57° WNW 06:23:41 10° SW visible
10 Oct 5.9 03:59:33 10° ENE 04:01:53 13° E 04:04:13 10° ESE visible
10 Oct 3.2 05:36:40 10° NNE 05:41:47 76° ESE 05:46:52 10° S visible
11 Oct 4.3 04:59:53 10° NNE 05:04:40 39° E 05:09:25 10° SSE visible
11 Oct 3.5 06:39:00 10° N 06:43:40 37° WNW 06:48:19 10° SW visible
12 Oct 5.4 04:23:33 10° NE 04:27:21 21° E 04:31:07 10° SE visible
12 Oct 2.9 06:01:47 10° N 06:06:52 70° WNW 06:11:55 10° SSW visible
